Theta_e
308 308 310 310 310 297 303 305 298 300 307 309 306 309 312 309 303 300 312 310 317 323 325 325 327 329 330 333 331 333 334 337 337 335 335 334 337 333 334 334 334 338 338 339 342 342 342 343 344 346 349 351 353 355 356 357 357 357 358 358 358 359 359
308 310 310 310 311 310 305 299 300 309 310 312 306 300 304 301 295 301 308 305 308 310 305 324 324 323 326 326 330 332 334 335 334 335 335 334 335 334 334 335 336 338 338 340 341 343 343 344 344 347 350 352 354 355 356 356 357 355 358 357 358 358 358
309 311 308 306 308 310 304 302 309 301 297 297 307 304 296 296 296 297 303 308 309 309 310 318 319 320 322 326 327 329 331 331 332 333 335 335 338 338 333 334 337 337 338 339 339 343 344 345 346 348 350 353 354 355 356 357 356 356 357 358 358 359 360
307 306 303 295 299 307 309 309 303 308 302 301 300 303 304 302 298 299 299 304 301 313 314 321 320 322 323 325 330 328 330 332 332 333 335 335 336 335 336 335 338 338 338 339 339 341 344 344 345 347 349 353 353 354 356 355 357 357 356 356 357 357 360
306 298 300 297 300 297 299 300 298 301 307 310 308 309 304 302 298 297 297 297 305 315 324 324 323 324 326 327 330 330 332 334 335 336 336 338 336 336 335 336 336 337 338 339 341 340 344 345 347 347 348 351 352 353 354 355 355 355 355 355 356 357 358
297 299 304 305 304 303 299 297 297 299 299 300 296 298 309 306 301 295 298 297 308 317 327 325 324 326 328 332 332 331 333 334 335 336 337 338 339 336 338 336 336 336 338 338 343 342 344 345 345 345 346 349 350 351 353 355 354 353 354 353 355 355 356
299 303 307 308 307 306 304 301 299 304 301 302 299 289 299 304 305 310 307 303 306 324 329 327 327 327 327 329 332 332 333 334 335 336 339 339 341 340 345 346 339 336 338 338 341 345 343 344 344 344 345 346 348 349 351 353 353 351 354 352 354 354 355
305 307 309 308 308 306 303 302 303 302 299 300 300 301 304 300 305 302 304 301 305 323 328 327 329 330 329 329 331 332 332 333 336 336 336 338 340 343 345 346 349 354 342 342 342 343 344 349 349 349 352 349 345 347 348 350 351 351 352 352 353 354 353
294 299 303 303 305 305 300 298 300 303 302 303 302 309 306 301 304 305 299 296 303 320 328 327 329 329 328 329 333 334 331 334 337 338 335 337 340 339 338 344 348 350 345 339 341 342 341 346 342 343 346 350 352 347 349 354 351 351 350 353 352 353 352
288 290 291 292 295 296 299 302 302 303 303 301 301 295 302 292 303 307 301 302 311 319 323 325 326 326 326 328 331 335 334 333 335 337 336 334 339 338 341 342 344 344 348 347 344 345 346 348 343 343 345 350 352 350 351 348 346 348 349 355 351 352 351
294 297 299 304 307 302 296 299 300 301 303 303 302 303 299 293 304 306 307 308 310 314 320 321 324 326 326 326 328 330 329 333 336 335 335 337 339 339 339 339 341 341 344 344 345 347 349 349 348 345 347 349 349 349 347 346 346 347 348 350 352 352 349
301 302 302 305 306 302 303 301 299 301 301 303 302 297 294 306 306 299 312 312 311 312 319 322 322 325 326 327 329 331 331 331 333 334 334 339 337 338 339 340 340 340 340 344 345 344 346 347 348 347 348 349 347 345 345 350 352 353 352 350 353 352 351
303 304 304 305 304 304 303 304 303 304 304 301 300 304 302 308 304 302 312 313 311 313 318 322 323 325 325 328 330 332 332 333 334 333 334 335 335 334 337 337 338 339 340 342 344 341 343 345 345 345 346 347 345 348 350 349 348 350 351 347 345 350 349
302 303 304 305 304 303 304 304 307 309 309 310 308 312 312 311 309 314 315 315 315 318 320 323 324 327 328 329 331 333 331 332 332 331 331 332 332 333 334 336 337 339 339 340 345 343 343 343 343 343 345 345 345 345 345 346 347 349 348 344 344 350 349
299 303 305 305 304 303 302 308 311 311 311 314 315 314 315 317 317 319 318 316 315 321 324 324 327 329 329 328 329 330 331 332 332 331 330 331 331 332 333 334 335 339 341 342 343 345 344 342 342 344 345 344 345 344 345 347 349 351 348 344 347 350 348
297 302 302 303 304 304 304 308 309 310 311 310 313 312 315 314 313 315 316 312 313 320 326 327 328 328 327 325 327 328 328 330 331 332 331 330 331 332 332 333 334 335 337 339 342 344 345 343 344 346 346 346 346 344 344 343 344 347 346 345 347 345 345
295 301 303 302 302 301 302 302 307 311 313 315 316 316 318 316 313 308 308 311 321 325 328 325 325 327 327 327 328 328 328 328 330 334 335 335 334 332 331 332 334 334 336 336 336 338 342 345 344 345 346 346 344 344 343 346 345 343 344 345 343 343 343
296 301 302 303 296 292 298 307 313 314 313 315 314 314 315 318 318 314 319 321 324 326 326 325 324 326 326 327 329 331 329 328 329 330 332 333 334 334 334 334 333 333 333 333 333 335 337 340 342 344 344 344 344 347 349 349 346 346 345 344 343 342 342
295 299 301 295 289 294 308 313 313 315 317 318 316 317 319 319 321 320 318 319 321 323 327 326 328 328 329 330 329 329 330 330 329 328 329 329 330 330 330 330 331 331 331 331 331 332 335 338 339 340 340 341 341 341 343 345 348 347 345 343 342 342 342
300 296 295 287 293 306 311 312 313 316 316 316 318 314 317 319 320 322 320 323 325 326 326 328 329 328 328 329 330 330 330 331 329 328 328 329 330 329 329 329 330 331 331 330 330 331 335 335 336 337 337 339 338 338 340 341 342 344 344 343 343 342 341
293 296 295 296 305 306 307 309 309 309 309 312 310 305 310 318 318 322 322 323 325 326 326 327 327 328 328 325 326 331 330 330 330 329 329 330 330 330 330 330 330 331 331 331 332 332 333 333 334 335 336 337 336 336 337 338 339 339 339 339 340 341 342
300 295 293 296 293 291 300 309 312 314 314 320 319 314 309 318 323 322 322 322 323 325 326 326 326 326 322 319 321 327 329 330 329 330 330 331 331 330 330 331 331 331 331 332 333 332 331 332 333 334 335 335 334 333 333 334 335 336 336 336 338 339 340
298 296 292 292 290 295 304 307 312 314 314 315 320 311 304 315 320 321 323 321 321 322 324 325 325 322 316 317 321 327 328 329 330 329 329 330 331 331 331 330 330 330 330 331 331 332 331 331 332 334 334 334 333 332 333 334 334 334 335 336 338 339 340
298 298 294 292 299 298 306 310 313 314 315 315 312 296 298 314 321 322 321 318 320 321 322 323 319 316 314 317 322 328 329 329 329 329 328 328 328 329 330 331 331 331 332 331 330 330 330 330 333 333 333 333 333 332 332 333 333 334 335 336 337 338 338
296 299 295 298 302 311 312 313 315 317 318 312 298 291 305 320 322 322 321 320 321 322 322 323 318 322 325 325 328 326 329 329 328 330 330 328 328 327 328 328 333 330 330 330 329 329 330 331 332 332 332 331 331 331 331 331 330 331 334 335 335 335 334
296 298 296 297 300 307 313 317 318 320 314 298 297 311 323 322 321 322 322 320 321 323 323 323 323 325 330 328 331 322 322 322 323 324 325 325 326 327 329 331 327 325 325 326 329 331 331 331 331 331 331 330 329 329 328 329 332 335 335 334 333 331 330
301 299 295 290 286 305 317 317 315 319 307 307 316 320 323 324 322 322 323 323 323 324 322 325 324 324 324 327 323 322 321 320 320 321 322 322 322 320 320 321 324 323 321 322 324 326 329 331 331 331 330 329 329 329 327 329 332 334 335 335 334 332 332
295 295 293 291 304 310 319 316 308 315 317 320 321 322 318 323 323 322 321 322 325 326 324 323 323 323 321 318 318 319 319 319 320 321 321 318 317 318 319 321 322 323 321 321 322 325 327 329 330 329 328 327 328 327 326 329 332 334 333 334 334 335 336
302 299 302 309 313 315 318 320 319 320 322 323 324 323 322 321 321 324 322 322 325 326 325 324 324 324 323 319 319 316 317 318 319 320 319 317 317 319 321 322 324 323 321 321 322 323 324 324 325 327 328 327 327 325 327 331 330 330 330 332 332 332 332
311 312 313 314 315 317 317 320 322 322 323 325 326 323 321 323 324 324 323 324 325 325 326 323 323 323 323 324 320 318 318 319 320 322 320 320 320 321 322 322 323 323 323 323 323 322 322 323 324 326 325 325 325 325 329 330 327 329 330 330 330 329 330
301 295 311 312 313 316 318 319 321 322 323 324 325 324 324 323 323 324 325 327 326 326 326 324 323 324 324 322 321 321 321 320 318 318 319 320 320 320 320 320 321 320 320 320 321 322 322 324 324 325 323 323 323 325 326 324 325 326 330 329 331 329 326
303 304 310 313 315 315 316 316 316 318 320 323 326 325 324 323 325 325 326 327 325 326 325 325 323 323 325 323 320 320 321 320 319 320 319 319 319 320 321 321 321 319 318 318 319 319 319 319 319 321 323 323 325 326 324 324 325 327 329 327 326 325 327
307 311 312 313 313 313 315 317 318 319 320 321 323 324 324 323 323 324 326 327 325 325 323 324 323 323 324 325 325 324 325 321 320 320 319 320 321 321 321 322 322 320 320 319 320 320 320 321 321 321 323 325 327 326 325 326 326 326 326 328 328 324 325
301 303 307 312 305 304 310 314 317 319 321 322 323 324 323 322 322 323 322 323 326 326 326 326 326 323 323 325 324 325 324 323 321 321 321 321 322 323 324 324 323 323 323 321 321 320 319 319 320 320 321 323 325 327 327 328 328 327 326 326 324 323 323
301 311 314 314 313 312 314 316 319 320 321 322 321 321 321 322 324 324 322 322 322 323 324 326 325 324 325 325 327 325 324 323 323 322 322 323 322 323 323 322 322 322 322 323 321 320 319 321 321 322 322 323 323 325 326 327 325 324 324 325 324 322 326
313 316 316 316 314 312 315 318 319 319 321 320 321 322 323 323 323 324 325 326 322 322 324 326 327 325 325 328 327 324 324 324 323 322 323 322 323 323 323 323 323 322 321 321 320 320 319 320 319 319 321 323 323 326 327 327 327 326 327 328 325 323 323
310 317 317 317 316 316 318 319 320 320 322 321 319 320 322 323 324 326 324 323 325 325 322 322 325 326 326 326 327 325 323 324 324 324 325 323 323 323 322 322 322 321 321 321 320 320 320 320 320 321 320 322 325 325 326 328 328 328 327 323 322 321 323
Wind_Speed
13 9 5 5 3 1 3 4 6 6 4 6 6 4 5 4 2 0 3 1 1 1 2 6 3 7 6 5 12 12 10 8 5 4 3 4 2 5 7 7 7 9 11 9 10 10 11 10 11 13 13 12 13 12 11 10 9 9 8 8 7 6 6
5 6 6 6 5 6 3 2 2 5 3 3 5 3 1 2 2 1 2 5 3 4 2 1 1 7 5 5 9 12 9 7 7 4 3 3 4 4 9 6 7 10 10 8 11 11 11 9 8 12 14 12 12 13 12 11 9 10 8 9 7 7 6
9 6 5 8 7 4 3 2 2 1 3 4 1 4 3 3 1 2 1 2 2 4 3 4 6 9 9 10 8 9 9 8 8 6 5 4 3 2 8 7 7 9 10 8 11 12 11 10 7 11 12 12 12 12 12 11 11 10 10 9 8 6 7
9 5 3 2 2 3 5 2 7 0 2 2 5 2 3 6 2 1 2 2 3 3 3 9 9 9 10 9 9 9 9 9 9 8 7 6 3 3 3 7 6 9 9 7 10 11 13 12 9 12 11 11 14 12 12 11 10 9 9 9 9 8 8
11 3 3 3 1 3 3 2 3 3 1 1 6 2 2 4 5 3 1 1 2 4 8 2 5 5 10 9 8 7 8 7 7 7 7 3 2 6 3 5 9 8 10 8 10 8 11 11 9 11 10 12 12 11 12 12 12 10 11 9 10 7 7
3 1 8 7 7 5 3 6 4 5 3 1 2 1 3 3 5 2 2 2 3 6 1 4 7 5 8 2 8 8 8 9 9 8 8 8 2 8 5 3 5 7 8 8 7 6 9 11 9 13 9 11 11 11 12 12 10 9 10 8 9 8 7
5 8 3 8 4 3 4 6 6 8 4 2 3 1 2 2 3 7 1 2 1 1 0 5 6 9 12 12 10 9 7 7 7 8 8 7 5 4 3 3 1 4 6 8 8 9 11 10 7 10 10 9 10 11 12 10 10 9 10 8 9 7 6
7 8 10 8 8 5 6 3 4 2 6 3 2 6 5 2 6 4 0 1 2 1 1 3 3 4 5 3 3 3 4 4 3 5 8 8 6 5 3 1 5 4 2 3 7 11 9 7 7 6 4 5 5 8 8 9 13 10 11 7 9 9 7
5 8 9 1 5 3 2 2 4 7 6 7 9 1 4 3 4 9 7 4 2 2 1 3 4 9 9 6 6 7 6 5 5 4 6 4 1 4 7 3 4 8 2 8 7 9 9 9 8 3 6 5 3 7 4 2 6 11 10 7 10 9 8
2 3 3 3 6 1 2 4 6 5 10 7 2 4 0 3 4 10 5 2 1 0 2 4 6 10 8 4 6 6 7 9 6 4 1 1 1 2 4 3 7 8 8 0 9 7 8 9 9 4 4 7 6 6 7 9 10 10 7 1 10 8 7
3 2 5 6 4 4 4 3 9 9 6 6 5 1 5 5 1 8 5 11 8 5 4 3 6 9 10 8 7 7 6 5 7 8 7 5 1 3 7 5 1 6 8 9 4 8 8 9 8 8 6 8 9 2 4 9 7 5 5 9 4 8 8
4 5 7 8 7 8 6 9 8 9 6 3 3 6 5 10 9 1 1 10 14 10 10 7 7 7 8 8 8 7 5 7 8 7 6 6 3 5 4 3 5 7 7 4 4 1 10 9 8 8 6 6 6 7 4 8 8 6 5 6 9 5 6
8 9 9 9 9 8 9 9 4 12 10 7 6 3 11 7 10 9 7 7 11 11 11 11 10 10 8 8 8 8 8 7 8 9 7 6 4 4 3 2 3 7 8 4 5 3 6 10 11 8 7 5 3 7 7 8 9 7 7 8 6 2 5
8 10 11 12 10 7 9 9 13 14 22 25 16 11 15 7 7 13 16 7 8 9 8 10 9 9 9 7 6 8 10 9 8 9 8 7 6 5 3 1 1 3 4 3 4 4 3 8 9 8 7 6 4 5 6 7 8 7 7 7 2 3 4
4 8 11 12 11 6 4 14 14 17 12 10 11 17 16 16 12 13 11 9 6 2 5 8 11 10 8 7 7 8 9 8 8 8 7 6 7 6 4 3 3 1 4 3 2 3 4 7 8 7 6 7 6 3 4 6 6 5 4 7 6 3 4
4 5 11 9 8 10 4 11 14 12 12 11 13 10 8 6 10 9 8 6 3 4 9 9 9 10 10 8 7 7 8 7 6 7 9 8 7 7 8 5 2 4 1 2 3 4 4 4 6 7 7 6 6 5 5 3 4 5 5 3 2 2 3
4 10 8 10 9 8 11 12 9 9 11 11 11 10 10 11 8 7 4 2 2 6 8 10 7 9 9 7 6 7 9 7 5 6 6 5 6 8 9 9 6 5 5 6 7 8 7 7 7 6 7 8 6 5 4 2 5 6 6 5 2 1 3
3 9 11 8 7 6 2 5 7 11 11 11 13 10 8 4 5 4 5 3 4 4 7 7 8 9 7 9 8 8 9 11 11 10 9 9 8 9 8 9 8 7 6 6 7 7 8 8 8 7 8 8 6 4 5 5 4 6 5 3 3 2 4
2 6 8 5 2 1 7 11 6 6 7 11 14 11 10 7 7 12 11 10 6 6 2 7 11 13 13 11 10 9 8 8 9 11 10 9 8 8 7 7 7 7 8 7 7 6 7 7 7 8 8 7 7 6 5 6 5 6 5 2 2 2 5
1 2 2 1 1 6 4 1 9 9 5 7 6 10 11 12 6 5 8 7 7 7 11 12 11 12 13 11 9 8 7 8 8 8 7 8 8 8 6 6 5 6 7 6 5 6 5 7 7 6 7 6 8 7 6 7 7 6 6 4 3 3 4
1 1 1 2 2 2 5 3 7 7 3 2 5 4 4 8 11 8 4 6 7 10 11 12 12 11 10 9 6 6 8 9 8 9 9 8 9 9 7 7 7 6 6 6 6 6 6 6 8 8 6 7 8 7 6 5 6 6 6 5 5 6 5
2 1 1 1 1 2 4 4 8 8 6 2 2 2 0 6 8 12 9 2 6 11 12 11 10 10 10 7 5 8 11 9 10 11 11 10 9 9 8 8 8 7 7 7 7 7 8 8 7 7 7 8 8 8 7 5 6 6 5 6 4 6 6
1 1 1 1 1 1 4 9 9 7 5 5 2 3 3 3 7 8 8 8 6 8 6 7 4 2 7 4 5 8 11 10 10 11 10 10 9 9 9 9 9 9 8 9 10 9 10 10 7 7 8 8 9 8 6 6 7 7 6 5 6 6 6
3 1 3 2 1 1 5 9 9 8 6 8 0 1 2 4 4 3 7 9 7 6 8 9 10 7 4 5 4 10 12 10 10 11 12 11 10 10 10 10 9 10 9 9 10 9 10 10 9 8 7 8 9 8 7 7 8 7 6 6 6 7 7
6 5 4 2 1 0 6 8 8 8 8 4 2 1 1 2 4 6 7 5 5 6 4 3 6 4 5 5 3 10 12 13 11 10 11 10 9 10 11 10 7 6 6 8 10 10 8 8 9 8 7 9 8 7 7 8 8 7 6 6 6 7 7
5 3 5 3 3 1 8 8 7 9 2 3 2 1 2 2 3 4 4 3 2 2 6 5 6 7 10 10 5 10 10 11 9 11 11 10 10 8 5 7 7 8 9 8 9 10 8 10 10 8 7 9 8 8 8 8 6 5 6 7 7 7 8
2 2 4 3 1 3 10 9 3 11 4 1 2 2 4 4 3 4 4 1 1 5 9 8 9 11 10 9 11 12 11 10 9 8 9 7 7 7 8 9 7 6 6 7 8 9 9 9 8 7 8 8 7 6 7 5 4 5 5 5 6 6 6
1 2 2 1 4 3 9 7 4 0 2 4 1 2 4 2 2 2 3 4 4 6 11 11 8 7 11 11 13 12 12 12 11 8 6 8 8 8 8 7 6 8 8 7 8 8 7 7 7 6 7 7 6 6 4 2 4 5 5 4 3 4 5
2 2 2 3 6 5 5 4 3 3 1 1 1 4 3 5 2 3 4 4 4 4 7 8 7 7 7 11 11 12 11 10 9 9 9 8 5 6 9 10 9 8 8 7 7 8 7 8 7 6 5 7 6 6 2 3 4 5 4 4 4 4 5
8 8 5 5 7 6 6 5 3 3 4 3 3 4 5 6 5 4 4 2 5 5 5 9 5 6 6 7 9 11 11 10 7 5 7 9 10 10 9 9 8 8 8 8 8 8 7 6 6 5 4 4 6 4 3 3 3 4 5 5 4 3 3
3 3 3 8 7 5 5 5 5 6 7 7 7 6 6 7 7 6 6 6 5 5 6 8 8 8 7 8 7 6 5 5 7 10 10 8 8 9 8 7 7 7 7 6 6 7 8 5 5 5 6 5 5 4 4 3 3 4 4 4 3 3 3
6 5 6 7 7 6 6 4 4 6 6 7 10 8 4 5 7 7 5 6 10 8 9 9 11 10 10 8 7 6 8 4 8 8 9 9 8 6 7 6 6 6 6 7 7 7 7 5 4 4 5 5 4 5 6 4 3 3 4 3 3 3 3
6 6 6 8 7 7 6 5 4 3 4 6 9 12 9 6 8 8 8 8 8 8 7 8 11 11 8 10 8 5 2 2 6 7 7 7 6 6 6 5 4 5 5 6 6 6 5 4 4 4 4 3 3 4 6 5 4 4 4 4 3 4 4
3 2 6 5 5 4 4 5 4 4 5 6 6 9 13 10 4 2 7 7 6 8 7 6 4 6 8 8 10 5 3 5 6 6 6 5 5 4 4 5 6 6 5 5 5 4 4 4 4 4 4 4 4 4 3 3 3 4 3 4 4 4 4
3 3 7 10 9 6 4 4 5 6 4 4 5 6 9 9 7 5 5 5 5 7 6 4 6 5 4 3 3 5 5 6 6 7 6 6 5 5 5 6 5 5 4 5 5 5 3 3 3 4 4 4 4 4 3 2 3 3 3 3 4 5 3
6 8 7 5 5 7 5 5 6 6 5 5 6 5 6 8 7 7 6 3 5 4 4 5 4 3 2 1 2 5 5 5 6 6 6 6 6 6 6 6 5 5 5 4 4 4 4 4 3 3 4 4 4 3 3 3 3 3 2 2 4 5 5
6 5 7 8 9 8 6 7 6 6 5 6 6 6 5 6 6 6 6 5 3 4 5 4 2 1 0 2 1 5 5 5 5 6 7 7 7 6 7 6 5 5 4 4 4 3 3 4 4 4 4 4 4 4 3 2 1 2 4 6 5 5 5
Wind_Direction
164 198 213 211 154 224 298 343 165 181 193 140 118 109 97 29 34 219 132 48 158 252 331 332 84 91 89 141 164 163 158 153 158 197 196 198 214 177 169 167 158 155 154 159 148 154 153 155 154 156 155 158 156 157 164 168 170 169 167 171 168 168 164
167 186 201 241 201 193 254 38 306 165 231 93 119 146 196 130 139 227 243 196 213 149 265 338 165 129 148 157 188 163 157 151 165 195 220 214 212 204 171 169 157 157 160 151 149 154 155 159 148 146 156 155 156 159 162 167 170 173 173 171 169 169 167
172 184 177 222 254 254 256 108 326 38 203 173 173 111 149 164 245 196 297 357 252 196 207 164 199 172 175 169 176 170 169 174 185 199 226 248 234 260 177 167 156 164 160 153 156 154 159 165 146 148 149 150 155 159 160 166 172 177 175 171 172 165 168
143 140 88 251 223 257 282 358 309 171 147 181 165 173 142 110 187 226 239 112 267 194 198 188 188 179 173 161 160 175 177 181 188 200 209 230 244 248 213 164 157 160 166 153 161 152 160 168 152 157 153 151 159 160 161 167 171 174 177 174 172 170 167
119 212 151 222 184 185 187 215 270 294 227 82 121 129 157 141 168 189 147 328 341 352 341 215 190 173 173 170 165 172 178 179 185 195 206 242 306 321 249 174 166 161 165 157 164 155 155 163 147 158 155 155 161 160 164 168 172 178 179 179 171 176 168
164 207 185 199 193 201 201 163 207 217 240 71 103 218 166 159 111 178 146 221 234 268 148 48 83 25 50 40 173 172 177 176 180 189 197 202 197 232 260 217 158 165 163 162 158 141 149 162 152 163 158 157 166 165 166 167 171 180 179 182 169 170 183
332 303 283 206 217 234 230 160 204 207 251 229 132 121 243 119 51 124 333 121 309 128 210 118 143 156 167 186 173 167 172 168 171 179 188 195 205 206 325 338 207 179 162 173 150 144 149 151 151 161 163 163 168 164 166 165 169 180 183 176 166 169 177
297 294 272 183 174 224 274 233 256 202 231 253 189 169 162 137 164 84 343 79 205 292 198 165 110 117 119 70 53 127 154 150 153 161 175 187 204 202 18 325 68 357 148 128 128 142 134 119 116 108 89 90 151 160 152 159 171 177 182 172 167 171 175
330 313 336 107 138 175 272 264 217 229 240 209 235 146 115 147 172 161 133 202 183 216 192 164 144 115 116 144 115 109 115 140 152 136 145 144 231 150 169 303 44 27 36 149 144 143 139 122 112 123 111 80 124 136 120 117 189 177 175 158 168 168 173
311 347 345 341 339 305 279 273 272 231 223 252 215 235 108 137 201 134 126 147 134 165 281 163 139 120 128 150 113 93 148 158 122 79 46 19 227 144 102 357 31 47 12 252 142 140 131 126 135 162 132 108 49 44 74 73 64 4 356 181 166 170 168
237 224 215 232 224 297 276 240 254 266 266 240 232 79 115 188 164 127 198 155 154 177 209 176 135 127 132 146 155 161 158 127 122 115 128 144 159 156 140 138 121 63 41 20 326 124 118 119 128 143 123 106 109 124 93 96 102 118 84 349 208 164 172
284 309 309 307 316 293 308 279 245 247 262 294 220 197 236 151 98 68 307 146 140 191 167 164 146 130 133 145 156 154 147 145 148 155 146 124 62 47 63 117 147 118 82 65 343 47 106 103 91 84 68 72 110 117 94 82 87 95 68 53 313 160 160
331 327 309 297 295 283 264 273 38 20 345 284 249 234 238 170 136 170 176 172 150 178 174 161 158 149 144 148 145 148 149 131 129 135 136 140 119 55 52 56 67 115 114 119 102 327 97 100 95 94 95 99 106 103 99 96 99 73 56 72 313 79 94
329 324 311 305 290 291 299 354 10 41 31 10 12 26 46 31 150 149 153 172 157 173 165 146 137 128 131 131 122 121 136 146 142 143 151 152 158 161 150 47 39 53 75 31 91 148 104 103 103 104 107 101 86 96 101 113 123 119 114 105 265 286 104
326 303 302 295 286 291 326 22 28 41 46 46 7 26 53 77 88 120 138 136 132 118 91 112 119 117 120 127 141 133 123 135 140 140 156 157 159 164 167 83 348 7 101 135 71 48 90 97 100 106 108 105 106 85 86 97 98 99 119 144 197 210 122
296 282 279 290 281 265 103 21 33 30 49 48 32 35 12 47 101 97 101 107 119 100 101 106 115 125 133 140 146 138 126 130 132 147 151 158 159 158 164 143 31 42 6 176 105 89 94 94 92 99 102 113 123 128 110 109 102 80 79 43 307 183 126
309 306 313 305 339 13 43 1 1 17 42 65 64 52 44 43 58 59 58 16 38 96 115 121 130 123 116 128 143 129 115 126 123 103 111 124 150 156 154 147 122 107 100 88 82 71 66 80 92 88 96 94 94 102 100 124 112 107 120 137 221 202 101
309 312 317 350 19 48 254 265 0 29 51 56 63 46 54 51 88 164 144 340 21 99 121 128 125 111 98 91 71 82 106 108 97 95 97 91 87 82 95 121 115 107 83 75 72 75 80 77 79 84 85 90 85 79 130 155 129 113 123 136 196 153 103
290 331 331 352 46 229 261 286 354 18 66 86 70 54 28 43 106 118 125 130 159 229 166 105 96 94 97 91 86 80 79 93 105 110 106 100 94 92 96 96 95 94 92 87 89 84 86 87 86 87 82 95 94 76 76 90 94 105 109 161 233 110 113
328 291 315 52 286 211 212 300 8 355 27 33 96 54 25 11 21 121 117 148 130 111 99 98 99 97 90 83 75 81 85 86 94 93 98 106 104 101 97 102 92 96 97 97 98 102 104 106 98 86 95 93 89 77 59 83 93 111 128 131 106 86 83
219 148 63 116 200 142 16 354 1 340 39 20 54 89 356 10 4 350 134 124 121 110 103 106 105 106 100 92 90 91 85 83 81 89 85 81 89 95 99 100 97 90 102 108 108 106 96 92 100 105 108 100 98 97 92 83 93 96 101 90 87 92 86
128 57 66 24 20 73 1 347 315 331 358 66 39 94 248 9 4 4 351 40 71 106 108 106 109 106 100 99 103 98 93 94 95 90 90 89 90 94 98 101 104 103 100 100 100 100 99 92 94 103 107 111 109 107 104 99 93 86 84 94 105 85 73
37 217 118 69 80 246 251 326 319 320 327 335 84 81 38 350 55 29 32 54 29 359 20 65 46 90 97 90 105 117 111 106 104 100 96 99 102 105 106 108 107 106 102 102 103 99 94 96 97 102 108 107 104 103 104 100 95 95 92 94 101 100 92
261 236 117 180 234 241 316 321 323 325 347 336 0 76 287 340 44 70 81 82 50 40 94 108 82 48 106 128 117 117 114 113 108 112 117 116 111 106 104 103 109 112 111 106 102 98 99 104 112 107 107 105 106 105 102 100 97 93 90 88 84 89 94
230 180 97 133 136 321 320 321 315 337 332 350 52 127 309 14 52 54 49 49 119 145 105 93 108 139 135 107 349 97 110 114 111 114 113 111 113 111 116 123 129 117 114 106 104 107 111 107 104 101 102 101 98 98 97 92 89 95 100 97 95 94 90
20 41 103 104 139 29 331 324 9 340 357 44 39 4 337 40 56 94 97 87 357 2 82 72 94 112 111 119 143 99 95 96 105 107 110 111 108 115 107 96 94 95 95 99 110 113 103 97 99 94 89 93 96 93 91 92 100 102 97 100 103 101 98
15 28 77 65 12 347 9 325 359 9 67 117 249 244 60 48 38 65 76 103 173 106 82 82 94 99 108 128 129 119 113 110 105 101 101 111 115 110 108 110 124 121 106 97 89 86 89 89 83 85 87 86 86 88 88 91 92 89 92 100 107 107 101
100 45 73 175 223 24 19 35 92 37 151 209 219 124 112 55 19 30 58 27 26 93 114 115 103 106 124 117 108 102 102 104 106 107 101 100 114 132 137 129 109 94 89 86 86 84 85 88 88 81 86 88 87 84 80 97 98 100 101 100 99 103 109
64 101 79 54 85 69 48 60 110 136 171 233 83 86 86 109 70 6 39 28 39 82 106 102 100 96 99 114 115 112 117 120 130 136 142 146 135 101 93 93 91 90 94 95 93 84 78 83 90 95 93 102 98 85 59 62 77 93 97 95 93 93 98
78 54 47 68 65 59 60 62 58 71 93 111 75 66 76 40 49 43 39 45 98 91 93 101 71 78 80 80 109 120 129 141 144 125 106 95 90 90 90 86 90 95 94 94 96 102 100 101 100 102 101 103 105 104 76 56 56 71 78 78 75 73 87
96 55 11 59 68 69 60 57 53 57 56 56 68 59 59 71 59 40 17 39 79 90 79 81 86 69 59 70 71 92 111 100 102 104 97 95 97 100 99 104 103 105 110 111 108 106 105 102 104 111 121 126 133 133 116 100 77 69 75 83 85 73 73
91 133 98 84 81 75 62 46 38 36 33 56 78 81 47 68 89 73 20 57 58 66 79 78 72 53 36 41 47 27 7 50 95 93 98 102 101 104 113 121 124 122 117 116 113 109 110 117 125 124 121 131 147 145 135 135 130 113 107 101 103 111 93
107 114 109 106 95 76 71 74 62 65 62 64 80 94 85 38 41 64 74 74 91 89 92 100 112 104 97 110 111 113 234 123 100 105 109 110 112 116 116 111 103 104 105 104 108 108 105 100 93 86 84 93 95 107 123 138 150 131 139 141 137 112 97
139 157 155 159 105 81 50 46 55 61 54 62 72 96 104 100 71 36 73 68 70 86 98 107 94 106 116 125 132 143 124 109 107 100 96 93 94 86 87 91 92 93 92 97 95 90 89 93 98 109 114 104 97 91 94 101 121 127 130 133 130 116 116
170 109 101 99 108 99 82 76 53 51 57 71 70 77 97 109 121 134 118 99 85 90 84 76 97 95 101 127 128 99 100 102 108 110 108 101 93 89 91 92 87 93 101 105 108 110 115 97 109 117 107 105 106 112 111 99 106 129 148 151 149 138 112
110 135 127 109 107 113 106 76 61 49 39 72 84 81 90 108 109 97 94 97 110 107 102 91 80 102 76 347 112 114 110 112 113 119 117 112 107 110 105 109 111 109 110 113 121 131 133 140 139 113 106 106 115 117 126 147 157 169 191 112 103 114 120
115 111 115 114 112 109 102 93 77 64 52 57 65 71 93 105 111 117 116 106 90 106 121 102 63 35 327 278 214 145 147 149 153 149 145 139 141 141 139 135 131 138 143 136 145 151 158 142 148 153 147 153 141 121 130 139 151 123 107 115 112 104 101